• In Deutschland
  • Länderverzeichnis
  • Für 7 Tage
  • Wassertemperatur
  • Satellitenkarten
  • Wetterkarte
  • Widgets
  • user-avatar
    Anmelden

    Stündliche Wetter Freital

    Heute, 17 Oktober, Dienstag

    Zeit Temperatur Niederschläge Wind Luftdruck Luftfeuchtigkeit
    00:00 +16°C° 0 mm 2 m/S 749 mmHg 73%
    01:00 +16°C° 0 mm 2 m/S 749 mmHg 70%
    02:00 +15°C° 0 mm 2 m/S 749 mmHg 70%
    03:00 +15°C° 0 mm 2 m/S 749 mmHg 70%
    04:00 +14°C° 0 mm 3 m/S 748 mmHg 71%
    05:00 +14°C° 0 mm 3 m/S 748 mmHg 72%
    06:00 +14°C° 0 mm 3 m/S 748 mmHg 72%
    07:00 +14°C° 0 mm 3 m/S 748 mmHg 73%
    08:00 +16°C° 0 mm 3 m/S 748 mmHg 68%
    09:00 +18°C° 0 mm 3 m/S 749 mmHg 63%
    10:00 +20°C° 0 mm 3 m/S 749 mmHg 58%
    11:00 +21°C° 0 mm 2 m/S 748 mmHg 56%
    12:00 +23°C° 0 mm 2 m/S 748 mmHg 53%
    13:00 +24°C° 0 mm 2 m/S 748 mmHg 50%
    14:00 +24°C° 0 mm 2 m/S 747 mmHg 53%
    15:00 +23°C° 0 mm 1 m/S 747 mmHg 57%
    16:00 +23°C° 0 mm 1 m/S 746 mmHg 61%
    17:00 +21°C° 0 mm 1 m/S 746 mmHg 65%
    18:00 +19°C° 0 mm 1 m/S 746 mmHg 69%
    19:00 +18°C° 0 mm 1 m/S 746 mmHg 73%
    20:00 +16°C° 0 mm 1 m/S 746 mmHg 74%
    21:00 +16°C° 0 mm 1 m/S 746 mmHg 75%
    22:00 +15°C° 0 mm 2 m/S 746 mmHg 75%
    23:00 +15°C° 0 mm 1 m/S 745 mmHg 77%

    Morgen, 18 Oktober, Mittwoch

    Zeit Temperatur Niederschläge Wind Luftdruck Luftfeuchtigkeit
    00:00 +14°C° 0 mm 1 m/S 745 mmHg 78%
    01:00 +14°C° 0 mm 1 m/S 745 mmHg 79%
    02:00 +14°C° 0 mm 1 m/S 745 mmHg 80%
    03:00 +13°C° 0 mm 1 m/S 744 mmHg 81%
    04:00 +13°C° 0 mm 1 m/S 744 mmHg 82%
    05:00 +13°C° 0 mm 1 m/S 744 mmHg 82%
    06:00 +13°C° 0 mm 1 m/S 744 mmHg 83%
    07:00 +13°C° 0 mm 1 m/S 744 mmHg 83%
    08:00 +14°C° 0 mm 1 m/S 744 mmHg 77%
    09:00 +16°C° 0 mm 1 m/S 743 mmHg 71%
    10:00 +19°C° 0 mm 1 m/S 743 mmHg 65%
    11:00 +20°C° 0 mm 1 m/S 743 mmHg 61%
    12:00 +21°C° 0 mm 1 m/S 743 mmHg 58%
    13:00 +22°C° 0 mm 1 m/S 743 mmHg 54%
    14:00 +21°C° 0 mm 1 m/S 742 mmHg 58%
    15:00 +19°C° 0 mm 0 m/S 742 mmHg 62%
    16:00 +18°C° 0 mm 0 m/S 742 mmHg 65%
    17:00 +19°C° 0 mm 1 m/S 742 mmHg 69%
    18:00 +18°C° 0 mm 1 m/S 742 mmHg 73%
    19:00 +15°C° 0 mm 1 m/S 742 mmHg 77%
    20:00 +15°C° 0 mm 1 m/S 742 mmHg 79%
    21:00 +15°C° 0 mm 1 m/S 742 mmHg 80%
    22:00 +14°C° 0 mm 2 m/S 742 mmHg 81%
    23:00 +14°C° 0 mm 2 m/S 742 mmHg 81%

    übermorgen, 19 Oktober, Donnerstag

    Zeit Temperatur Niederschläge Wind Luftdruck Luftfeuchtigkeit
    00:00 +14°C° 0 mm 2 m/S 742 mmHg 82%
    01:00 +13°C° 0 mm 2 m/S 742 mmHg 82%
    02:00 +13°C° 0 mm 2 m/S 742 mmHg 81%
    03:00 +12°C° 0 mm 2 m/S 742 mmHg 81%
    04:00 +12°C° 0 mm 2 m/S 742 mmHg 80%
    05:00 +12°C° 0 mm 2 m/S 742 mmHg 80%
    06:00 +12°C° 0 mm 2 m/S 742 mmHg 79%
    07:00 +10°C° 0 mm 2 m/S 742 mmHg 79%
    08:00 +14°C° 0 mm 2 m/S 742 mmHg 73%
    09:00 +16°C° 0 mm 2 m/S 742 mmHg 68%
    10:00 +18°C° 0 mm 2 m/S 742 mmHg 62%
    11:00 +19°C° 0 mm 2 m/S 742 mmHg 58%
    12:00 +20°C° 0 mm 2 m/S 742 mmHg 53%
    13:00 +21°C° 0 mm 2 m/S 742 mmHg 49%
    14:00 +21°C° 0 mm 2 m/S 742 mmHg 52%
    15:00 +21°C° 0 mm 1 m/S 742 mmHg 55%
    16:00 +20°C° 0 mm 1 m/S 741 mmHg 58%
    17:00 +18°C° 0 mm 2 m/S 742 mmHg 62%
    18:00 +17°C° 0 mm 2 m/S 742 mmHg 65%
    19:00 +15°C° 0 mm 2 m/S 742 mmHg 69%
    20:00 +15°C° 0 mm 2 m/S 742 mmHg 69%
    21:00 +14°C° 0 mm 2 m/S 742 mmHg 69%
    22:00 +14°C° 0 mm 2 m/S 742 mmHg 69%
    23:00 +14°C° 0 mm 2 m/S 742 mmHg 70%

    20 Oktober, Freitag

    Zeit Temperatur Niederschläge Wind Luftdruck Luftfeuchtigkeit
    00:00 +14°C° 0 mm 2 m/S 742 mmHg 70%
    01:00 +13°C° 0 mm 2 m/S 742 mmHg 70%
    02:00 +13°C° 0 mm 2 m/S 742 mmHg 71%
    03:00 +13°C° 0 mm 2 m/S 742 mmHg 71%
    04:00 +13°C° 0 mm 2 m/S 742 mmHg 71%
    05:00 +12°C° 0 mm 3 m/S 742 mmHg 72%
    06:00 +12°C° 0 mm 3 m/S 742 mmHg 72%
    07:00 +12°C° 0 mm 3 m/S 742 mmHg 72%
    08:00 +13°C° 0 mm 3 m/S 742 mmHg 69%
    09:00 +16°C° 0 mm 3 m/S 743 mmHg 65%
    10:00 +17°C° 0 mm 3 m/S 743 mmHg 62%
    11:00 +18°C° 0 mm 3 m/S 743 mmHg 61%
    12:00 +18°C° 0 mm 3 m/S 743 mmHg 60%
    13:00 +19°C° 0 mm 4 m/S 742 mmHg 59%
    14:00 +18°C° 0,1 mm 3 m/S 742 mmHg 63%
    15:00 +18°C° 0,1 mm 3 m/S 742 mmHg 68%
    16:00 +17°C° 0,1 mm 3 m/S 742 mmHg 72%
    17:00 +16°C° 0 mm 3 m/S 742 mmHg 74%
    18:00 +16°C° 0 mm 3 m/S 742 mmHg 76%
    19:00 +14°C° 0 mm 3 m/S 742 mmHg 78%
    20:00 +14°C° 0 mm 3 m/S 742 mmHg 80%
    21:00 +13°C° 0 mm 3 m/S 743 mmHg 82%
    22:00 +13°C° 0 mm 3 m/S 743 mmHg 84%
    23:00 +13°C° 0 mm 3 m/S 743 mmHg 86%

    21 Oktober, Samstag

    Zeit Temperatur Niederschläge Wind Luftdruck Luftfeuchtigkeit
    00:00 +13°C° 0 mm 3 m/S 743 mmHg 87%
    01:00 +12°C° 0 mm 3 m/S 743 mmHg 89%
    02:00 +12°C° 0 mm 3 m/S 743 mmHg 89%
    03:00 +12°C° 0 mm 3 m/S 743 mmHg 90%
    04:00 +12°C° 0 mm 3 m/S 742 mmHg 90%
    05:00 +12°C° 0 mm 3 m/S 742 mmHg 89%
    06:00 +12°C° 0 mm 3 m/S 742 mmHg 87%
    07:00 +13°C° 0 mm 3 m/S 742 mmHg 86%
    08:00 +14°C° 0 mm 3 m/S 742 mmHg 80%
    09:00 +17°C° 0 mm 4 m/S 743 mmHg 74%
    10:00 +18°C° 0 mm 4 m/S 743 mmHg 68%
    11:00 +18°C° 0,1 mm 4 m/S 742 mmHg 69%
    12:00 +19°C° 0,1 mm 4 m/S 742 mmHg 69%
    13:00 +19°C° 0,1 mm 4 m/S 742 mmHg 69%
    14:00 +19°C° 0 mm 4 m/S 742 mmHg 72%
    15:00 +18°C° 0 mm 4 m/S 741 mmHg 74%
    16:00 +18°C° 0 mm 3 m/S 741 mmHg 77%
    17:00 +17°C° 0,5 mm 3 m/S 741 mmHg 80%
    18:00 +17°C° 0,5 mm 3 m/S 741 mmHg 83%
    19:00 +16°C° 0,5 mm 3 m/S 741 mmHg 87%
    20:00 +16°C° 0,2 mm 3 m/S 741 mmHg 88%
    21:00 +14°C° 0,2 mm 3 m/S 741 mmHg 89%
    22:00 +14°C° 0,2 mm 3 m/S 741 mmHg 90%
    23:00 +14°C° 0,1 mm 3 m/S 741 mmHg 91%

    22 Oktober, Sonntag

    Zeit Temperatur Niederschläge Wind Luftdruck Luftfeuchtigkeit
    00:00 +14°C° 0,1 mm 3 m/S 741 mmHg 91%
    01:00 +13°C° 0,1 mm 3 m/S 741 mmHg 92%
    02:00 +13°C° 0,6 mm 3 m/S 741 mmHg 92%
    03:00 +13°C° 0,6 mm 3 m/S 741 mmHg 91%
    04:00 +14°C° 0,6 mm 2 m/S 741 mmHg 91%
    05:00 +12°C° 0,7 mm 3 m/S 741 mmHg 90%
    06:00 +12°C° 0,7 mm 3 m/S 741 mmHg 90%
    07:00 +12°C° 0,7 mm 3 m/S 741 mmHg 89%
    08:00 +12°C° 0,2 mm 4 m/S 741 mmHg 86%
    09:00 +12°C° 0,2 mm 4 m/S 741 mmHg 83%
    10:00 +12°C° 0,2 mm 5 m/S 741 mmHg 80%
    11:00 +12°C° 0,1 mm 5 m/S 741 mmHg 78%
    12:00 +12°C° 0,1 mm 5 m/S 741 mmHg 75%
    13:00 +12°C° 0,1 mm 5 m/S 741 mmHg 73%
    14:00 +12°C° 0 mm 5 m/S 741 mmHg 73%
    15:00 +11°C° 0 mm 4 m/S 741 mmHg 73%
    16:00 +11°C° 0 mm 4 m/S 741 mmHg 72%
    17:00 +10°C° 0 mm 4 m/S 741 mmHg 73%
    18:00 +10°C° 0 mm 4 m/S 741 mmHg 74%
    19:00 +8°C° 0 mm 4 m/S 742 mmHg 75%
    20:00 +8°C° 0 mm 5 m/S 742 mmHg 76%
    21:00 +7°C° 0 mm 5 m/S 742 mmHg 77%
    22:00 +7°C° 0 mm 5 m/S 742 mmHg 78%
    23:00 +7°C° 0,5 mm 5 m/S 742 mmHg 80%
    Mehr zeigen